Location: Waco, TX
(31.5480°N, 97.1670°W)
Time: 19:49:44
(UTC-05:00)

ISS - Pass Details

Date: 19 September 2018
Orbit: 403 x 408 km, 51.6° (Epoch: 25 September)

Event Time Altitude Azimuth Distance (km) Brightness Sun altitude
Rises 05:27:45 0° 316° (NW) 2,321 - -23.3°
Reaches altitude 10° 05:29:50 10° 317° (NW) 1,457 - -22.9°
Maximum altitude 05:33:06 83° 45° (NE) 409 - -22.2°
Exits shadow 05:34:09 40° 129° (SE) 608 -2.8 -22.0°
Drops below altitude 10° 05:36:21 10° 134° (SE) 1,447 -0.7 -21.6°
Sets 05:38:25 0° 135° (SE) 2,302 0.4 -21.2°
